Time,TemperatureF,DewpointF,PressureIn,WindDirection,WindDirectionDegrees,WindSpeedMPH,WindSpeedGustMPH,Humidity,HourlyPrecipIn,Conditions,Clouds,dailyrainin,SoftwareType,DateUTC
2013-01-11 00:01:00,32.9,32.0,30.10,SE,141,0.0,1.0,98,0.00,,,0.00,weatherlink.com 1.10,2013-01-11 08:01:00,
2013-01-11 00:16:00,32.8,32.0,30.10,SE,141,0.0,0.0,98,0.00,,,0.00,weatherlink.com 1.10,2013-01-11 08:16:00,
2013-01-11 00:31:00,32.6,32.0,30.11,East,82,0.0,1.0,98,0.00,,,0.00,weatherlink.com 1.10,2013-01-11 08:31:00,
2013-01-11 00:46:00,32.6,32.0,30.10,NE,49,0.0,1.0,98,0.00,,,0.00,weatherlink.com 1.10,2013-01-11 08:46:00,
2013-01-11 01:01:00,32.3,32.0,30.10,NE,49,0.0,0.0,98,0.00,,,0.00,weatherlink.com 1.10,2013-01-11 09:01:00,
2013-01-11 01:16:00,32.2,32.0,30.10,NE,49,0.0,1.0,98,0.00,,,0.00,weatherlink.com 1.10,2013-01-11 09:16:00,
2013-01-11 01:31:00,32.0,32.0,30.11,NE,34,1.0,1.0,98,0.00,,,0.00,weatherlink.com 1.10,2013-01-11 09:31:00,
2013-01-11 01:46:00,32.0,32.0,30.11,North,11,0.0,1.0,98,0.00,,,0.00,weatherlink.com 1.10,2013-01-11 09:46:00,
2013-01-11 02:01:00,32.1,32.0,30.12,NNE,33,2.0,8.0,98,0.00,,,0.00,weatherlink.com 1.10,2013-01-11 10:01:00,
2013-01-11 02:16:00,32.3,32.0,30.12,NW,323,3.0,4.0,97,0.00,,,0.00,weatherlink.com 1.10,2013-01-11 10:16:00,
2013-01-11 02:31:00,32.2,32.0,30.12,North,9,1.0,2.0,97,0.00,,,0.00,weatherlink.com 1.10,2013-01-11 10:31:00,
2013-01-11 02:46:00,32.4,32.0,30.13,NE,38,1.0,6.0,97,0.00,,,0.00,weatherlink.com 1.10,2013-01-11 10:46:00,
2013-01-11 03:01:00,32.7,32.0,30.13,WNW,294,0.0,2.0,96,0.00,,,0.00,weatherlink.com 1.10,2013-01-11 11:01:00,
2013-01-11 03:16:00,32.5,32.0,30.13,NW,305,1.0,3.0,97,0.00,,,0.00,weatherlink.com 1.10,2013-01-11 11:16:00,
2013-01-11 03:31:00,32.3,32.0,30.13,NNE,16,0.0,3.0,98,0.00,,,0.00,weatherlink.com 1.10,2013-01-11 11:31:00,
2013-01-11 03:46:00,32.0,32.0,30.13,North,350,0.0,3.0,98,0.00,,,0.00,weatherlink.com 1.10,2013-01-11 11:46:00,
2013-01-11 04:01:00,31.6,31.0,30.13,WNW,300,2.0,3.0,98,0.00,,,0.00,weatherlink.com 1.10,2013-01-11 12:01:00,
2013-01-11 04:16:00,31.5,31.0,30.13,North,356,0.0,5.0,98,0.00,,,0.00,weatherlink.com 1.10,2013-01-11 12:16:00,
2013-01-11 04:31:00,31.2,31.0,30.13,North,349,0.0,2.0,98,0.00,,,0.00,weatherlink.com 1.10,2013-01-11 12:31:00,
2013-01-11 04:46:00,31.1,31.0,30.13,North,350,0.0,4.0,98,0.00,,,0.00,weatherlink.com 1.10,2013-01-11 12:46:00,
2013-01-11 05:01:00,31.0,31.0,30.14,NNE,19,2.0,5.0,98,0.00,,,0.00,weatherlink.com 1.10,2013-01-11 13:01:00,
2013-01-11 05:16:00,30.7,30.0,30.14,NNE,27,1.0,2.0,97,0.00,,,0.00,weatherlink.com 1.10,2013-01-11 13:16:00,
2013-01-11 05:31:00,30.6,30.0,30.14,NNW,342,2.0,2.0,97,0.00,,,0.00,weatherlink.com 1.10,2013-01-11 13:31:00,
2013-01-11 05:46:00,30.3,30.0,30.14,NNE,27,0.0,2.0,97,0.00,,,0.00,weatherlink.com 1.10,2013-01-11 13:46:00,
2013-01-11 06:01:00,30.1,29.0,30.15,NNE,32,2.0,2.0,97,0.00,,,0.00,weatherlink.com 1.10,2013-01-11 14:01:00,
2013-01-11 06:17:00,30.0,29.0,30.16,NNE,19,1.0,2.0,97,0.00,,,0.00,weatherlink.com 1.10,2013-01-11 14:17:00,
2013-01-11 06:32:00,29.8,29.0,30.17,NNW,345,0.0,3.0,97,0.00,,,0.00,weatherlink.com 1.10,2013-01-11 14:32:00,
2013-01-11 06:47:00,29.5,29.0,30.18,NNW,338,0.0,2.0,97,0.00,,,0.00,weatherlink.com 1.10,2013-01-11 14:47:00,
2013-01-11 07:02:00,29.5,29.0,30.18,NE,34,0.0,2.0,97,0.00,,,0.00,weatherlink.com 1.10,2013-01-11 15:02:00,
2013-01-11 07:17:00,29.6,29.0,30.19,NNE,29,0.0,2.0,98,0.00,,,0.00,weatherlink.com 1.10,2013-01-11 15:17:00,
2013-01-11 07:32:00,29.6,29.0,30.20,NE,41,0.0,2.0,98,0.00,,,0.00,weatherlink.com 1.10,2013-01-11 15:32:00,
2013-01-11 07:47:00,29.3,29.0,30.21,NE,45,1.0,1.0,98,0.00,,,0.00,weatherlink.com 1.10,2013-01-11 15:47:00,
2013-01-11 08:02:00,29.0,29.0,30.22,NE,44,2.0,3.0,98,0.00,,,0.00,weatherlink.com 1.10,2013-01-11 16:02:00,
2013-01-11 08:17:00,29.2,29.0,30.22,NE,40,0.0,1.0,97,0.00,,,0.00,weatherlink.com 1.10,2013-01-11 16:17:00,
2013-01-11 08:32:00,28.8,28.0,30.23,NE,40,1.0,1.0,97,0.00,,,0.00,weatherlink.com 1.10,2013-01-11 16:32:00,
2013-01-11 08:47:00,29.3,29.0,30.23,NE,37,0.0,1.0,97,0.00,,,0.00,weatherlink.com 1.10,2013-01-11 16:47:00,
2013-01-11 09:02:00,29.8,29.0,30.24,NNE,25,0.0,1.0,97,0.00,,,0.00,weatherlink.com 1.10,2013-01-11 17:02:00,
2013-01-11 09:17:00,30.3,30.0,30.24,NNW,340,0.0,3.0,97,0.00,,,0.00,weatherlink.com 1.10,2013-01-11 17:17:00,
2013-01-11 09:32:00,31.2,30.0,30.25,NNE,25,1.0,4.0,96,0.00,,,0.00,weatherlink.com 1.10,2013-01-11 17:32:00,
2013-01-11 09:47:00,31.6,30.0,30.25,WNW,291,3.0,6.0,95,0.00,,,0.00,weatherlink.com 1.10,2013-01-11 17:47:00,
2013-01-11 10:02:00,31.3,30.0,30.26,WSW,251,0.0,5.0,95,0.00,,,0.00,weatherlink.com 1.10,2013-01-11 18:02:00,
2013-01-11 10:17:00,31.9,31.0,30.25,NW,307,1.0,4.0,95,0.00,,,0.00,weatherlink.com 1.10,2013-01-11 18:17:00,
2013-01-11 10:32:00,32.4,31.0,30.26,NNW,337,1.0,5.0,95,0.00,,,0.00,weatherlink.com 1.10,2013-01-11 18:32:00,
2013-01-11 10:47:00,32.8,31.0,30.26,NW,326,4.0,6.0,94,0.00,,,0.00,weatherlink.com 1.10,2013-01-11 18:47:00,
2013-01-11 11:02:00,33.4,32.0,30.26,NNW,328,3.0,5.0,94,0.00,,,0.00,weatherlink.com 1.10,2013-01-11 19:02:00,
2013-01-11 11:17:00,33.9,32.0,30.26,NW,326,1.0,6.0,92,0.00,,,0.00,weatherlink.com 1.10,2013-01-11 19:17:00,
2013-01-11 11:32:00,34.3,32.0,30.26,West,275,0.0,6.0,91,0.00,,,0.00,weatherlink.com 1.10,2013-01-11 19:32:00,
2013-01-11 11:47:00,34.0,32.0,30.26,West,270,4.0,9.0,92,0.00,,,0.00,weatherlink.com 1.10,2013-01-11 19:47:00,
2013-01-11 12:02:00,34.0,32.0,30.26,West,266,3.0,10.0,92,0.00,,,0.00,weatherlink.com 1.10,2013-01-11 20:02:00,
2013-01-11 12:17:00,35.0,33.0,30.27,WSW,248,1.0,7.0,92,0.00,,,0.00,weatherlink.com 1.10,2013-01-11 20:17:00,
2013-01-11 12:32:00,35.5,33.0,30.26,NW,323,3.0,6.0,90,0.00,,,0.00,weatherlink.com 1.10,2013-01-11 20:32:00,
2013-01-11 12:47:00,36.4,33.0,30.26,West,271,4.0,8.0,86,0.00,,,0.00,weatherlink.com 1.10,2013-01-11 20:47:00,
2013-01-11 13:02:00,37.0,31.0,30.26,WNW,289,1.0,4.0,80,0.00,,,0.00,weatherlink.com 1.10,2013-01-11 21:02:00,
2013-01-11 13:17:00,36.7,30.0,30.27,NE,39,5.0,8.0,76,0.00,,,0.00,weatherlink.com 1.10,2013-01-11 21:17:00,
2013-01-11 13:32:00,36.8,31.0,30.27,WNW,283,0.0,4.0,80,0.00,,,0.00,weatherlink.com 1.10,2013-01-11 21:32:00,
2013-01-11 13:48:00,36.9,31.0,30.28,WSW,250,3.0,3.0,80,0.00,,,0.00,weatherlink.com 1.10,2013-01-11 21:48:00,
2013-01-11 14:03:00,37.6,31.0,30.28,NNW,340,3.0,6.0,77,0.00,,,0.00,weatherlink.com 1.10,2013-01-11 22:03:00,
2013-01-11 14:18:00,38.2,31.0,30.28,SE,140,0.0,2.0,74,0.00,,,0.00,weatherlink.com 1.10,2013-01-11 22:18:00,
2013-01-11 14:33:00,38.6,31.0,30.28,SE,138,1.0,3.0,74,0.00,,,0.00,weatherlink.com 1.10,2013-01-11 22:33:00,
2013-01-11 14:48:00,37.8,31.0,30.28,East,82,0.0,3.0,76,0.00,,,0.00,weatherlink.com 1.10,2013-01-11 22:48:00,
2013-01-11 15:03:00,38.2,31.0,30.28,ESE,118,2.0,4.0,74,0.00,,,0.00,weatherlink.com 1.10,2013-01-11 23:03:00,
2013-01-11 15:18:00,39.3,32.0,30.29,WNW,285,1.0,4.0,75,0.00,,,0.00,weatherlink.com 1.10,2013-01-11 23:18:00,
2013-01-11 15:33:00,39.1,32.0,30.29,WSW,254,1.0,3.0,75,0.00,,,0.00,weatherlink.com 1.10,2013-01-11 23:33:00,
2013-01-11 15:48:00,38.8,32.0,30.29,South,181,0.0,3.0,75,0.00,,,0.00,weatherlink.com 1.10,2013-01-11 23:48:00,
2013-01-11 16:03:00,38.7,31.0,30.29,SSW,195,0.0,1.0,75,0.00,,,0.00,weatherlink.com 1.10,2013-01-12 00:03:00,
2013-01-11 16:18:00,37.8,31.0,30.29,West,263,0.0,1.0,77,0.00,,,0.00,weatherlink.com 1.10,2013-01-12 00:18:00,
2013-01-11 16:33:00,36.3,30.0,30.30,West,280,0.0,2.0,79,0.00,,,0.00,weatherlink.com 1.10,2013-01-12 00:33:00,
2013-01-11 16:48:00,34.7,29.0,30.30,West,280,0.0,0.0,81,0.00,,,0.00,weatherlink.com 1.10,2013-01-12 00:48:00,
2013-01-11 17:04:00,33.2,30.0,30.30,ENE,63,0.0,0.0,87,0.00,,,0.00,weatherlink.com 1.10,2013-01-12 01:04:00,
2013-01-11 17:18:00,32.2,29.0,30.30,ENE,78,0.0,1.0,89,0.00,,,0.00,weatherlink.com 1.10,2013-01-12 01:18:00,
2013-01-11 17:48:00,31.4,29.0,30.30,East,79,1.0,2.0,91,0.00,,,0.00,weatherlink.com 1.10,2013-01-12 01:48:00,
2013-01-11 18:03:00,31.3,29.0,30.30,ENE,75,1.0,1.0,91,0.00,,,0.00,weatherlink.com 1.10,2013-01-12 02:03:00,
2013-01-11 18:18:00,31.1,29.0,30.30,ENE,68,1.0,1.0,91,0.00,,,0.00,weatherlink.com 1.10,2013-01-12 02:18:00,
2013-01-11 18:33:00,30.7,29.0,30.30,East,83,0.0,1.0,92,0.00,,,0.00,weatherlink.com 1.10,2013-01-12 02:33:00,
2013-01-11 18:48:00,30.5,29.0,30.30,ENE,77,1.0,1.0,92,0.00,,,0.00,weatherlink.com 1.10,2013-01-12 02:48:00,
2013-01-11 19:03:00,30.2,29.0,30.30,East,97,1.0,1.0,93,0.00,,,0.00,weatherlink.com 1.10,2013-01-12 03:03:00,
2013-01-11 19:18:00,30.5,28.0,30.30,NE,56,0.0,1.0,91,0.00,,,0.00,weatherlink.com 1.10,2013-01-12 03:18:00,
2013-01-11 19:33:00,29.7,28.0,30.30,East,101,0.0,1.0,94,0.00,,,0.00,weatherlink.com 1.10,2013-01-12 03:33:00,
2013-01-11 19:48:00,30.0,28.0,30.30,ENE,65,0.0,1.0,93,0.00,,,0.00,weatherlink.com 1.10,2013-01-12 03:48:00,
2013-01-11 20:03:00,29.9,28.0,30.30,ENE,65,0.0,1.0,94,0.00,,,0.00,weatherlink.com 1.10,2013-01-12 04:03:00,
2013-01-11 20:18:00,29.5,28.0,30.29,ENE,75,0.0,1.0,95,0.00,,,0.00,weatherlink.com 1.10,2013-01-12 04:18:00,
2013-01-11 20:33:00,29.3,28.0,30.29,ENE,75,0.0,1.0,95,0.00,,,0.00,weatherlink.com 1.10,2013-01-12 04:33:00,
2013-01-11 20:48:00,29.3,28.0,30.30,ENE,75,0.0,1.0,95,0.00,,,0.00,weatherlink.com 1.10,2013-01-12 04:48:00,
2013-01-11 21:03:00,29.4,28.0,30.30,NE,54,0.0,1.0,95,0.00,,,0.00,weatherlink.com 1.10,2013-01-12 05:03:00,
2013-01-11 21:18:00,29.6,28.0,30.31,NE,53,0.0,1.0,95,0.00,,,0.00,weatherlink.com 1.10,2013-01-12 05:18:00,
2013-01-11 21:33:00,29.5,29.0,30.30,ENE,70,0.0,1.0,96,0.00,,,0.00,weatherlink.com 1.10,2013-01-12 05:33:00,
2013-01-11 21:48:00,29.3,28.0,30.30,East,81,0.0,1.0,96,0.00,,,0.00,weatherlink.com 1.10,2013-01-12 05:48:00,
2013-01-11 22:03:00,29.5,29.0,30.30,East,82,0.0,1.0,96,0.00,,,0.00,weatherlink.com 1.10,2013-01-12 06:03:00,
2013-01-11 22:18:00,29.4,28.0,30.30,ENE,70,0.0,1.0,96,0.00,,,0.00,weatherlink.com 1.10,2013-01-12 06:18:00,
2013-01-11 22:33:00,29.6,29.0,30.30,NE,56,0.0,1.0,96,0.00,,,0.00,weatherlink.com 1.10,2013-01-12 06:33:00,
2013-01-11 22:48:00,29.3,28.0,30.30,NE,55,0.0,1.0,95,0.00,,,0.00,weatherlink.com 1.10,2013-01-12 06:48:00,
2013-01-11 23:03:00,28.9,28.0,30.30,NE,56,0.0,0.0,96,0.00,,,0.00,weatherlink.com 1.10,2013-01-12 07:03:00,
2013-01-11 23:18:00,29.0,28.0,30.30,NE,55,0.0,0.0,96,0.00,,,0.00,weatherlink.com 1.10,2013-01-12 07:18:00,
2013-01-11 23:33:00,28.1,27.0,30.30,NE,56,0.0,0.0,96,0.00,,,0.00,weatherlink.com 1.10,2013-01-12 07:33:00,
2013-01-11 23:48:00,28.2,28.0,30.30,NE,56,0.0,1.0,97,0.00,,,0.00,weatherlink.com 1.10,2013-01-12 07:48:00,